Flag for Argentina Weather past 2 weeks in Buenos Aires, Argentina

Now
57 °F

Clear.


Feels Like: 57 °F
Forecast: 55 / 63 °F
Wind: 1 mph from North

Location: Buenos Aires Airport

Current Time: Jul 30, 2014 at 8:50:47 AM

Latest Report: Jul 30, 2014 at 8:00 AM


Visibility: 6 mi

Pressure: 30.12 "Hg

Humidity: 82%

Dew point: 52 °F

Location of Buenos AiresLocation

Historic Weather in Buenos Aires — Graph

°F

Buenos Aires temperature yesterday

Maximum temperature yesterday: 64 °F (at 6:00 PM)
Minimum temperature yesterday: 55 °F (at 1:00 AM)
Average temperature yesterday: 58 °F

Past Weeks' High & Low Weather Summary

 TemperatureHumidityPressure
High68 °F (Jul 19, 5:00 PM)100% (Jul 22, 1:45 AM)30.42 "Hg (Jul 22, 1:45 AM)
Low39 °F (Jul 27, 6:00 AM)24% (Jul 24, 5:00 PM)29.74 "Hg (Jul 22, 10:00 AM)
Average55 °F69%30.12 "Hg
* Reported Jul 15 7:00 AM — Jul 30 7:00 AM, Buenos Aires, Weather by CustomWeather, © 2014

Note: Actual official high and low records may vary slightly from our data, if they occured in-between our weather recording intervals... More about our weather records

Advertising

Buenos Aires weather history for previous 24 hours

 ConditionsComfort  
Time TempWeatherWind HumidityBarometerVisibility
7:00 AM
Jul 30
57 °FClear.5 mph82%30.09 "Hg6 mi
6:00 AM59 °FClear.8 mph82%30.09 "Hg6 mi
5:00 AM61 °FClear.7 mph88%30.07 "Hg5 mi
4:00 AM61 °FClear.5 mph94%30.07 "Hg5 mi
3:00 AM63 °FClear.5 mph94%30.07 "Hg5 mi
2:00 AM59 °FFog.6 mph94%30.07 "Hg2 mi
1:00 AM59 °FClear.2 mph94%30.07 "Hg10 mi
11:00 PM
Jul 29
61 °FOvercast.3 mph88%30.09 "HgN/A
10:00 PM61 °FOvercast.3 mph88%30.09 "HgN/A
9:00 PM61 °FOvercast.5 mph88%30.07 "HgN/A
8:00 PM63 °FClear.6 mph88%30.04 "Hg10 mi
7:00 PM64 °FClear.5 mph78%30.04 "Hg10 mi
6:00 PM64 °FClear.3 mph78%30.04 "Hg10 mi
2:00 PM61 °FOvercast.3 mph83%30.04 "HgN/A
1:00 PM59 °FPartly sunny.5 mph82%30.09 "HgN/A
12:00 PM57 °FPartly sunny.6 mph88%30.09 "HgN/A
11:00 AM57 °FPartly sunny.8 mph82%30.09 "HgN/A
10:00 AM55 °FScattered clouds.8 mph82%30.12 "HgN/A
9:00 AM55 °FScattered clouds.10 mph82%30.12 "HgN/A
8:00 AM55 °FScattered clouds.12 mph77%30.12 "HgN/A
Weather by CustomWeather, © 2014

See weather overviewHow to use our weather pages